N51236 KSJX-KTVC

Flight info

Callsign N51236
Flight time N/A
Altitude 3000
Route KTVC
Aircraft BE58/L-VGDW/C

Departure

Time N/A
Airport Beaver Island Airport (KSJX)

Arrival

Time 2026-04-16 04:06
Airport Cherry Capital Airport (KTVC)
Time Latitude Longitude Altitude Speed Heading
2026-04-16 03:54 45.16317 -85.57071 628 ft 0 kts 267°
2026-04-16 03:55 45.16303 -85.57433 624 ft 85 kts 268°
2026-04-16 03:56 45.16250 -85.58539 840 ft 125 kts 262°
2026-04-16 03:56 45.16086 -85.59841 1218 ft 145 kts 259°
2026-04-16 03:56 45.15555 -85.61089 1495 ft 159 kts 211°
2026-04-16 03:56 45.14459 -85.61430 1763 ft 166 kts 185°
2026-04-16 03:57 45.13286 -85.61539 1998 ft 171 kts 185°
2026-04-16 03:57 45.12086 -85.61638 2219 ft 174 kts 185°
2026-04-16 03:57 45.10872 -85.61722 2433 ft 175 kts 185°
2026-04-16 03:57 45.09649 -85.61795 2635 ft 177 kts 185°
2026-04-16 03:58 45.08414 -85.61853 2839 ft 178 kts 185°
2026-04-16 03:58 45.07186 -85.61899 3041 ft 180 kts 185°
2026-04-16 03:58 45.05933 -85.61927 3240 ft 181 kts 185°
2026-04-16 03:58 45.04671 -85.61946 3439 ft 182 kts 185°
2026-04-16 03:59 45.03404 -85.61957 3638 ft 182 kts 185°
2026-04-16 03:59 45.02135 -85.61958 3838 ft 182 kts 185°
2026-04-16 03:59 45.00863 -85.61954 3990 ft 185 kts 185°
2026-04-16 03:59 44.99549 -85.61948 3979 ft 192 kts 185°
2026-04-16 04:00 44.98203 -85.61947 3980 ft 195 kts 185°
2026-04-16 04:00 44.96840 -85.61946 3984 ft 197 kts 185°
2026-04-16 04:00 44.95466 -85.61947 3983 ft 198 kts 185°
2026-04-16 04:00 44.94088 -85.61948 3979 ft 198 kts 185°
2026-04-16 04:01 44.92705 -85.61950 3976 ft 199 kts 185°
2026-04-16 04:01 44.91323 -85.61952 3971 ft 199 kts 185°
2026-04-16 04:01 44.89943 -85.61962 3958 ft 198 kts 185°
2026-04-16 04:01 44.88566 -85.61980 3956 ft 198 kts 185°
2026-04-16 04:02 44.87189 -85.61998 3952 ft 198 kts 185°
2026-04-16 04:02 44.85814 -85.62013 3949 ft 198 kts 185°
2026-04-16 04:02 44.84482 -85.62025 3735 ft 179 kts 185°
2026-04-16 04:02 44.83292 -85.62027 3415 ft 165 kts 185°
2026-04-16 04:03 44.82169 -85.62035 3098 ft 159 kts 185°
2026-04-16 04:03 44.81082 -85.62051 2779 ft 154 kts 184°
2026-04-16 04:03 44.80019 -85.62083 2468 ft 151 kts 185°
2026-04-16 04:03 44.78977 -85.62132 2160 ft 149 kts 185°
2026-04-16 04:04 44.78296 -85.62174 2002 ft 145 kts 185°
2026-04-16 04:04 44.77347 -85.62236 1983 ft 129 kts 185°
2026-04-16 04:04 44.76490 -85.62286 1984 ft 118 kts 185°
2026-04-16 04:04 44.75670 -85.62334 1847 ft 120 kts 184°
2026-04-16 04:05 44.74552 -85.62405 1594 ft 119 kts 175°
2026-04-16 04:05 44.73794 -85.62698 1426 ft 118 kts 192°
2026-04-16 04:05 44.73604 -85.61868 1042 ft 142 kts 47°
2026-04-16 04:05 44.74044 -85.60846 982 ft 107 kts 57°
2026-04-16 04:06 44.74157 -85.60208 848 ft 95 kts 85°
2026-04-16 04:06 44.74123 -85.59299 679 ft 89 kts 81°
2026-04-16 04:06 44.74095 -85.58477 628 ft 72 kts 93°
2026-04-16 04:06 44.74074 -85.58044 620 ft 7 kts 77°
2026-04-16 04:07 44.74075 -85.58041 620 ft 0 kts 77°
2026-04-16 04:08 44.74076 -85.58035 620 ft 9 kts 80°
2026-04-16 04:08 44.74048 -85.57515 621 ft 97 kts 94°
2026-04-16 04:08 44.74074 -85.56415 855 ft 124 kts 77°
2026-04-16 04:08 44.73956 -85.55133 1119 ft 140 kts 120°
2026-04-16 04:09 44.73125 -85.54475 1386 ft 148 kts 182°
2026-04-16 04:09 44.72199 -85.55128 1682 ft 157 kts 221°
2026-04-16 04:09 44.71401 -85.56179 1968 ft 161 kts 223°
2026-04-16 04:09 44.70570 -85.57263 2239 ft 164 kts 223°
2026-04-16 04:10 44.69722 -85.58352 2504 ft 166 kts 223°
2026-04-16 04:10 44.68860 -85.59446 2762 ft 167 kts 223°
2026-04-16 04:10 44.67990 -85.60539 3018 ft 168 kts 223°
2026-04-16 04:10 44.67112 -85.61624 3269 ft 169 kts 223°
2026-04-16 04:11 44.66230 -85.62707 3516 ft 168 kts 223°
2026-04-16 04:11 44.65350 -85.63783 3768 ft 168 kts 223°
2026-04-16 04:11 44.64467 -85.64856 3992 ft 169 kts 223°
2026-04-16 04:11 44.63546 -85.65973 4005 ft 179 kts 223°
2026-04-16 04:12 44.62591 -85.67135 4013 ft 184 kts 223°
2026-04-16 04:12 44.61621 -85.68318 4014 ft 186 kts 223°
2026-04-16 04:12 44.60639 -85.69521 4005 ft 189 kts 223°
2026-04-16 04:12 44.59673 -85.70777 4010 ft 190 kts 228°
2026-04-16 04:13 44.58782 -85.72157 4008 ft 192 kts 230°
2026-04-16 04:13 44.57903 -85.73570 4009 ft 192 kts 230°
2026-04-16 04:13 44.57023 -85.74975 4009 ft 191 kts 230°
2026-04-16 04:13 44.56146 -85.76366 4012 ft 189 kts 230°
2026-04-16 04:14 44.55277 -85.77747 4008 ft 189 kts 230°
2026-04-16 04:14 44.54410 -85.79128 4008 ft 188 kts 230°
2026-04-16 04:14 44.53548 -85.80507 4005 ft 188 kts 229°
2026-04-16 04:14 44.52696 -85.81895 4006 ft 188 kts 230°
2026-04-16 04:15 44.51850 -85.83286 3996 ft 187 kts 230°
2026-04-16 04:15 44.51004 -85.84677 3997 ft 187 kts 230°
2026-04-16 04:15 44.50161 -85.86066 3992 ft 187 kts 230°
2026-04-16 04:15 44.49326 -85.87441 3993 ft 188 kts 230°
2026-04-16 04:16 44.48478 -85.88835 3995 ft 188 kts 230°
2026-04-16 04:16 44.47630 -85.90231 3996 ft 188 kts 230°
2026-04-16 04:16 44.46783 -85.91625 3999 ft 188 kts 230°
2026-04-16 04:16 44.45936 -85.93019 3996 ft 188 kts 230°
2026-04-16 04:17 44.45086 -85.94416 3999 ft 189 kts 230°
2026-04-16 04:17 44.44233 -85.95820 3994 ft 190 kts 230°
2026-04-16 04:17 44.43375 -85.97232 3999 ft 191 kts 230°
2026-04-16 04:17 44.42510 -85.98658 3993 ft 194 kts 230°
2026-04-16 04:18 44.41651 -86.00114 3990 ft 194 kts 230°
2026-04-16 04:18 44.40778 -86.01544 3991 ft 193 kts 230°
2026-04-16 04:18 44.39907 -86.02958 3990 ft 191 kts 229°
2026-04-16 04:18 44.39041 -86.04356 3990 ft 190 kts 229°
2026-04-16 04:19 44.38180 -86.05746 3988 ft 189 kts 229°
2026-04-16 04:19 44.37323 -86.07136 3979 ft 189 kts 229°
2026-04-16 04:19 44.36530 -86.08421 3885 ft 162 kts 229°
2026-04-16 04:19 44.35834 -86.09553 3780 ft 147 kts 229°
2026-04-16 04:20 44.35189 -86.10611 3669 ft 140 kts 228°
2026-04-16 04:20 44.34583 -86.11644 3568 ft 136 kts 229°
2026-04-16 04:20 44.33996 -86.12665 3478 ft 134 kts 230°
2026-04-16 04:20 44.33418 -86.13678 3397 ft 133 kts 230°
2026-04-16 04:21 44.32836 -86.14681 3317 ft 132 kts 229°
2026-04-16 04:21 44.32260 -86.15681 3238 ft 132 kts 229°
2026-04-16 04:21 44.31686 -86.16681 3158 ft 132 kts 229°
2026-04-16 04:21 44.31115 -86.17690 3044 ft 132 kts 229°
2026-04-16 04:22 44.30558 -86.18681 2888 ft 128 kts 229°
2026-04-16 04:22 44.30015 -86.19657 2729 ft 126 kts 229°
2026-04-16 04:22 44.29483 -86.20629 2519 ft 126 kts 230°
2026-04-16 04:22 44.28955 -86.21596 2362 ft 125 kts 229°
2026-04-16 04:23 44.28429 -86.22561 2206 ft 125 kts 229°
2026-04-16 04:23 44.27915 -86.23541 2043 ft 126 kts 237°
2026-04-16 04:23 44.27926 -86.24756 1844 ft 137 kts 297°
2026-04-16 04:23 44.28450 -86.25858 1754 ft 134 kts 295°
2026-04-16 04:24 44.28740 -86.27025 1614 ft 124 kts 257°
2026-04-16 04:24 44.28390 -86.28046 1471 ft 117 kts 207°
2026-04-16 04:24 44.27613 -86.28123 1358 ft 114 kts 171°
2026-04-16 04:24 44.26974 -86.27559 1239 ft 113 kts 100°
2026-04-16 04:25 44.27147 -86.26480 964 ft 113 kts 73°
2026-04-16 04:25 44.27279 -86.25452 628 ft 103 kts 82°
2026-04-16 04:25 44.27267 -86.24636 622 ft 58 kts 91°
2026-04-16 04:25 44.27256 -86.24412 624 ft 8 kts 92°
2026-04-16 04:26 44.27254 -86.24362 624 ft 2 kts 92°
2026-04-16 04:26 44.27254 -86.24359 624 ft 0 kts 92°